Weather in Ust-Sobolevka

Russia / Primorsky Krai     46°10′20″N   138°00′29″E
temp.,
°C
wind,
m/s
gust,
m/s
humid.,
%
clouds,
%
prec.,
mm/h
press.,
hPa
HPBL,
m
26 february, fri
fri2601:00−17nw47811 0.0 1022177
04:00−19wnw48816 0.0 1021212
07:00−19wnw59780 0.0 1022235
10:00−16wnw47720 0.0 1022337
13:00−10wnw47610 0.0 10221137
16:00−9nw486132 0.0 10211363
19:00−14wnw477984 0.0 1025163
22:00−17wnw468055 0.0 1028180
27 february, sat
sat2701:00−18wnw47810 0.0 1030191
04:00−18wnw47800 0.0 1031167
07:00−19wnw35820 0.0 1033109
10:00−12wnw24720 0.0 1033217
13:00−4sw12640 0.0 1032549
16:00−4s34670 0.0 1030491
19:00−10wsw22872 0.0 103039
22:00−10w128942 0.0 102948
28 february, sun
sun2801:00−10w238998 0.0 102657
04:00−10wsw2386100 0.0 102346
07:00−9w2376100 0.0 102039
10:00−3sw2472100 0.0 1018183
13:00+3sw4117791 0.0 10161077
16:00+4w4137596 0.1 10161695
19:00−1wnw3107795 0.0 1019390
22:00−6w3177297 0.0 1022845
1 march, mon
mon101:00−9wsw31073100 0.0 1023577
04:00−11w2671100 0.0 1025262
07:00−13sw3478100 0.0 1026140
10:00−11wnw4125693 0.0 10271077
13:00−9wnw61352100 0.0 10271093
16:00−10wnw51255100 0.0 10271124
19:00−13w2572100 0.0 1028199
22:00−15wnw3674100 0.0 1031249
2 march, tue
tue201:00−16nw5869100 0.0 1031306
04:00−17nw3768100 0.0 1030257
07:00−17nw3673100 0.0 1029196
10:00−14nw3565100 0.0 1027362
13:00−10nnw2550100 0.0 1023956
16:00−9nnw4754100 0.0 10201352
19:00−14nnw356967 0.0 1022138
22:00−18nw477233 0.0 1024222